Regional Weather Roundup
Issued by NWS Nashville, TN

Home | Current Version | Previous Version | Text Only | Print | Product List | Glossary On
Versions: 1 2 3 4 5 6 7 8 9 10 11 12 13 14 15 16 17 18 19 20 21 22 23 24 25 26 27 28 29 30 31 32 33 34 35 36 37 38 39 40 41 42 43 44 45 46 47 48 49 50
000
ASUS44 KOHX 011515
RWROHX
MIDDLE TENNESSEE HOURLY WEATHER ROUNDUP
NATIONAL WEATHER SERVICE NASHVILLE TN
1000 AM CDT WED OCT 01 2014

NOTE: "FAIR" INDICATES FEW OR NO CLOUDS BELOW 12,000 FEET WITH
NO SIGNIFICANT WEATHER AND/OR OBSTRUCTIONS TO VISIBILITY.

* THESE REPORTS ARE NOT UNDER NWS QUALITY CONTROL AND MAY NOT
  REPORT WEATHER SUCH AS PRECIPITATION AND FOG.


TNZ005>011-023>034-057-059-062>066-078-080-011600
...NORTHERN MIDDLE TENNESSEE...

CITY           SKY/WX    TMP DP  RH WIND       PRES   REMARKS
CLARKSVILLE    MOSUNNY   72  57  59 CALM      29.98S
CROSSVILLE     PTSUNNY   73  60  63 S3        30.07R
GALLATIN         N/A     68  61  78 CALM      30.02R
LEBANON        MOSUNNY   69  57  65 CALM      29.99S
NASHVILLE      PTSUNNY   75  58  55 S3        30.00S
PORTLAND       MOSUNNY   73  57  56 SE6       29.99S
SMYRNA         MOSUNNY   72  59  63 CALM      30.01S
SPARTA         SUNNY     73  63  68 CALM      30.03S
$$
TNZ056-058-060-061-075>077-079-093>097-011600
...SOUTHERN MIDDLE TENNESSEE...

CITY           SKY/WX    TMP DP  RH WIND       PRES   REMARKS
COLUMBIA       MOSUNNY   73  70  88 CALM      29.99S
FAYETTEVILLE   SUNNY     75  61  60 S6        30.02S
LEWISBURG      CLOUDY    74  62  66 CALM      30.00S
MCMINNVILLE    SUNNY     70  64  83 CALM      30.03S
MURFREESBORO   MOSUNNY   72  57  58 SE3       30.00S
SHELBYVILLE    MOSUNNY   75  63  64 VRB3      30.02S
TULLAHOMA      SUNNY     72  61  68 S3        30.04R
WINCHESTER     SUNNY     79  64  61 CALM      30.02S
$$


...KEY TO REMARKS...
VSB - VISIBILITY IN MILES
WCI - WIND CHILL INDEX
HX  - HEAT INDEX




USA.gov is the U.S. government's official web portal to all federal, state and local government web resources and services.